User: anonymous   Login
Location: Unspecified
(47.1121°N, 116.3927°W)
Time: 04:44:04
(UTC-07:00)
Language:

ISS - Orbit

View from above orbital plane
View from above orbital plane
View from above satellite
View from above satellite

Ground track
Ground track

The orbit data is extracted from the following two-line orbital elements,

1 25544U 98067A   20218.55537890  .00016717  00000-0  10270-3 0  9024
2 25544  51.6448 104.1363 0001027 346.9162  13.1961 15.49111412 39663
Epoch (UTC): 05 August 2020 13:19:44
Eccentricity: 0.0001027
inclination: 51.6448°
perigee height: 418 km
apogee height: 420 km
right ascension of ascending node: 104.1363°
argument of perigee: 346.9162°
revolutions per day: 15.49111412
mean anomaly at epoch: 13.1961°
orbit number at epoch: 3966

The dashed part of the orbit path shows where the satellite is in the earth's shadow,  

DLR